Missoula, MT

1:36 AM MDT on April 20, 2018 (GMT -0600)
Missoula International

Weather History for KMSO - August, 2013

Change the Weather History Date:

Sunday, August 11, 2013

  Actual Average Record
Temperature  
Mean Temperature 72 °F 69 °F  
Max Temperature 85 °F 87 °F 100 °F (1996)
Min Temperature 59 °F 51 °F 39 °F (1895)
Degree Days  
Heating Degree Days 0 1  
Month to date heating degree days 8 11  
Since 1 June heating degree days 149 209  
Since 1 July heating degree days 8 49  
Cooling Degree Days 7 5  
Month to date cooling degree days 57 61  
Year to date cooling degree days 358 255  
Since 1 June cooling degree days 354 249  
Growing Degree Days 22 (Base 50)    
Moisture  
Dew Point 46 °F    
Average Humidity 44    
Maximum Humidity 64    
Minimum Humidity 23    
Precipitation  
Precipitation 0.00 in 0.04 in 1.13 in (1990)
Month to date precipitation 0.30 0.38  
Year to date precipitation 6.20 9.22  
Snow  
Snow 0.00 in - - ()
Month to date snowfall 0.0  
Year to date snowfall 27.4  
Since 1 July snowfall T  
Snow Depth 0.00 in    
Sea Level Pressure  
Sea Level Pressure 29.96 in    
Wind  
Wind Speed 6 mph (SE)    
Max Wind Speed 17 mph    
Max Gust Speed 22 mph    
Visibility 8 miles    
Events      
T = Trace of Precipitation, MM = Missing Value Source: NWS Daily Summary

Daily Weather History Graph

Daily Weather History Graph

Search for Another Location

Airport or City:

Astronomy

Aug. 11, 2013 Rise Set
Actual Time 6:29 AM MDT 8:53 PM MDT
Civil Twilight 5:55 AM MDT 9:26 PM MDT
Nautical Twilight 5:12 AM MDT 10:08 PM MDT
Astronomical Twilight 4:24 AM MDT 10:56 PM MDT
Moon 11:44 AM MDT (8/11) 10:46 PM MDT (8/11)
Length of Visible Light 15h 31m
Length of Day
14h 24m
Waxing Crescent, 22% of the Moon is Illuminated
Aug 11
Waxing Crescent
Aug 14
First Quarter
Aug 20
Full
Aug 28
Last Quarter
Sep 5
New

Hourly Weather History & Observations

Time (MDT) Temp. Dew Point Humidity Pressure Visibility Wind Dir Wind Speed Gust Speed Precip Events Conditions
12:53 AM 73.0 °F 44.1 °F 35% 29.95 in 10.0 mi SE 10.4 mph - N/A   Clear
1:53 AM 73.0 °F 43.0 °F 34% 29.94 in 10.0 mi ESE 10.4 mph - N/A   Clear
2:53 AM 70.0 °F 45.0 °F 41% 29.94 in 10.0 mi SE 10.4 mph - N/A   Clear
3:53 AM 69.1 °F 45.0 °F 42% 29.95 in 10.0 mi East 11.5 mph - N/A   Clear
4:53 AM 62.1 °F 46.0 °F 56% 29.96 in 10.0 mi Calm Calm - N/A   Clear
5:53 AM 60.1 °F 46.9 °F 62% 29.96 in 10.0 mi SE 8.1 mph - N/A   Clear
6:53 AM 61.0 °F 48.0 °F 62% 29.98 in 5.0 mi SSE 10.4 mph - N/A   Haze
7:53 AM 60.1 °F 48.0 °F 64% 30.01 in 5.0 mi Calm Calm - N/A   Haze
8:53 AM 61.0 °F 48.0 °F 62% 30.02 in 4.0 mi South 4.6 mph - N/A   Haze
9:53 AM 64.9 °F 48.9 °F 56% 30.02 in 9.0 mi Calm Calm - N/A   Clear
10:53 AM 70.0 °F 46.9 °F 44% 30.01 in 9.0 mi SSE 4.6 mph - N/A   Clear
11:53 AM 75.0 °F 45.0 °F 34% 29.98 in 7.0 mi Calm Calm - N/A   Clear
12:53 PM 75.9 °F 46.9 °F 36% 29.97 in 8.0 mi South 5.8 mph - N/A   Clear
1:53 PM 78.1 °F 46.0 °F 32% 29.97 in 6.0 mi SSE 12.7 mph - N/A   Haze
2:53 PM 75.9 °F 45.0 °F 33% 29.99 in 5.0 mi SSE 10.4 mph - N/A   Haze
3:53 PM 80.1 °F 44.1 °F 28% 29.95 in 5.0 mi NNE 5.8 mph - N/A   Haze
4:53 PM 84.9 °F 42.1 °F 22% 29.93 in 10.0 mi West 4.6 mph - N/A   Clear
5:53 PM 82.0 °F 44.1 °F 26% 29.93 in 9.0 mi North 3.5 mph - N/A   Clear
6:53 PM 79.0 °F 48.0 °F 34% 29.92 in 8.0 mi NE 3.5 mph - N/A   Clear
7:53 PM 75.9 °F 48.9 °F 38% 29.93 in 8.0 mi SW 6.9 mph - N/A   Clear
8:53 PM 75.0 °F 48.0 °F 38% 29.94 in 8.0 mi East 6.9 mph - N/A   Clear
9:53 PM 73.9 °F 48.9 °F 41% 29.96 in 8.0 mi SE 11.5 mph - N/A   Clear
10:53 PM 73.9 °F 45.0 °F 35% 29.98 in 10.0 mi East 10.4 mph - N/A   Clear
11:53 PM 73.0 °F 44.1 °F 35% 29.97 in 10.0 mi SSE 5.8 mph - N/A   Clear